ARIANE 1 DEB

Satellite information

Favourite Embed

Satellite Type and Status

DEBRISIN ORBIT

Key statistics

Satellite ARIANE 1 DEB at a glance.

Uptime

14440

Days in orbit

Revolutions

≈ 14.3

Per day

Orbit

SSO

Sun Synchronous Orbit

Inclination

98.3

Latest

Satellite identification and parameters

Extended collection of information and parameters for ARIANE 1 DEB.

Object identification

Identified? True

Debris? True

Object name: ARIANE 1 DEB

International designator: 1986-019D

Object number (NORAD): 16616

Object ID (CCSDS): 16616

Country: FRANCE (FR)

Current information (Y/N): Y

RCS size: MEDIUM

Orbital parameters

Period: 100.629 minutes

Inclination: 98.2636 deg

SMA: 7166.523 km

Apoapsis: 793.927 km

Periapsis: 782.85 km

RAAN: 252.074 deg

Eccentricy: 0.00077285

Argument of periapsis: 9.9814 deg

Mean anomaly: 1.9219 deg

Mean motion: 14.31001184 rev/day

Mean motion (dot): 0.00000725 rev/day2

B* drag term: 0.00029096595 1/REarth

Two-line elements (TLE)

Creation date: Sept. 4, 2025, 10:13 a.m.

Reference frame: TEME

Reference center: EARTH

Epoch: Sept. 4, 2025, 5:55 a.m. UTC

TLE line 0: 0 ARIANE 1 DEB

TLE line 1: 1 16616U 86019D 25247.24704559 .00000725 00000-0 29097-3 0 9994

TLE line 2: 2 16616 98.2636 252.0740 0007728 9.9814 1.9219 14.31001184 57345

Live tracking on map

Real-time ground track for satellite ARIANE 1 DEB.

In-orbit conjunctions

A list of the most updated potential collisions computed for object ARIANE 1 DEB.

Target Orbit TCA Probability of collision Miss distance Type
FENGYUN 1C DEB SSO 2024-09-26 05:54:33 0.0002816047 592.0 (m) DEBRIS
FENGYUN 1C DEB SSO 2024-09-24 07:00:27 0.001644923 36.0 (m) DEBRIS

Associated space launch

SPOT 1 is a French Earth observation satellite. Viking is Sweden's first satellite.

ARIANE 1 DEB was lifted into orbit during the mission ‘Ariane 1 | SPOT 1 & Viking’, on board a Ariane 1 space rocket.

The launch took place on Feb. 22, 1986, 1:44 a.m. from Ariane Launch Area 1 (ELV).

For more information about the launch, click the button.

Launch to space Ariane 1 | SPOT 1 & Viking
Ariane 1 | SPOT 1 & Viking

Agency: N/A

Status: Launch Successful

Launch date: Feb. 22, 1986, 1:44 a.m. UTC

Rocket: Ariane 1

Launch pad: Ariane Launch Area 1 (ELV)

Location: Guiana Space Centre, French Guiana

...

Latest news about this satellite

There are no fresh news available about this satellite. Check back as we update our databases every day.


Newsletter sign-up

Weekly statistics, charts and insights to help you stay on top of the space industry.